Find Starlink 5227

NORAD ID: 54181 Int'l Des: 2022-141 Owner: SPXS Country: US Constellation: starlink operational
LEOCIRCULAR

实时位置

正在加载3D地球...

关于 Starlink 5227

正在加载描述...

即将过境

Passes for default location (London). Set your location on the main map for personalized predictions.

高度历史

Loading altitude history...

两行轨道根数

1 54181U 22141AA 26107.26040398 -.00000575 00000-0 -18073-4 0 9999
2 54181 53.2181 190.7446 0001276 77.8790 282.2345 15.08837207191688
Epoch: Apr 17, 2026 • Age: 8 hours

当前状态

高度 539.5 km
速度 7.59 km/s
星下点 10.93°N, 137.89°E
发射日期 Oct 28, 2022
运行时间 3.4 years
类型 internet

技术详情

分类 Payload
质量 305.00 kg
干质量 290.00 kg
总质量 305.00 kg
长度 0.20 m
直径 2.80 m
跨度 9.00 m
形状 Box + pan
制造商 SPXS
平台类型 Starlink
阶段状态 In Orbit
所有者/国家 SPXS/US

Most Searched